STARLINK-3103 (49177 NORAD) Tracking and Keplerian Element Data

This shows tracking and keplerian element data for the satellite.

Feedback or suggestion? Click here.




ElementValue
Catalog49177
NameSTARLINK-3103
Epoch Orbit367
Epoch Day300.58334491
Epoch Year2021
RAAN4.636
Inclination69.9993
Eccentricity0.0004057
Argument of Perigee293.4922
Mean Anonmoly138.9388
Mean Motion15.69714378
Decay Rate0.00057947
L11 49177U 21082AZ 21300.58334491 .00057947 00000-0 48448-3 0 9997
L22 49177 69.9993 4.6360 0004057 293.4922 138.9388 15.69714378 3678

Live tracking and technical data element details for STARLINK-3103 (NORAD 49177). STARLINK-3103 can be tracked NOW for your location showing map with azimuth and elevation plus other details from your city location.

Track the satellite on the map from your city or location and see movement details for azimuth, elevation, latitude, longitude, range, height, and movement on the map or in text.







IsCatalogInMostPopularTable: catalog: 49177, numindb: 10
Update: records affected: 1



GetName: 49177 STARLINK-3103

Hit Count: updated at: Thu, 28 Oct 2021 11:06:53 GMT